Location: Gensac
(43.2177°N, 1.1313°E)
Time: 17:33:35
(UTC+00:00)

USA 59 Rocket - Pass Details

Date: 08 December 2025
Orbit: 369 x 1674 km, 63.3° (Epoch: 22 January)

Event Time Altitude Azimuth Distance (km) Brightness Sun altitude
Exits shadow 05:18:11 58° 303° (WNW) 663 -0.2 -20.5°
Maximum altitude 05:18:54 77° 235° (SW) 605 -0.2 -20.4°
Drops below altitude 10° 05:23:56 10° 150° (SSE) 2,279 3.5 -19.5°
Sets 05:26:47 0° 149° (SSE) 3,434 4.6 -19.0°
